Temp
73 72 74 74 74 74 78 76 74 72 73 74 75 76 77 76 76 75 75 66 66 69 73 75 76 76 75 73 73 72 73 72 72 72 70 70 69 70 69 68 68 68 68
73 73 72 71 70 70 70 74 74 73 73 73 74 72 73 75 76 75 74 75 65 66 69 72 75 76 76 74 72 72 72 72 72 72 71 70 69 68 69 68 68 68 68
73 73 72 71 72 71 70 71 71 73 73 73 72 73 72 73 75 76 74 75 75 63 65 68 72 73 74 74 73 72 71 71 71 72 71 70 69 68 67 67 67 68 68
66 68 68 68 69 68 68 69 69 68 68 69 71 71 73 70 73 75 77 74 75 76 68 64 67 69 71 73 73 73 72 71 70 71 71 70 70 69 68 68 67 67 68
63 65 66 70 71 68 67 65 64 66 68 68 68 69 69 69 71 74 75 75 75 77 77 67 64 65 66 70 72 74 73 72 71 71 71 70 70 69 69 69 67 66 67
59 60 63 62 64 66 68 66 65 66 68 71 70 70 70 70 71 69 72 72 73 74 77 74 74 72 63 66 69 72 74 73 72 72 71 71 70 69 68 69 67 67 67
56 57 58 60 62 61 63 65 67 66 64 67 66 68 67 68 68 68 69 70 70 71 72 73 71 71 74 63 66 70 73 74 73 72 71 70 70 68 68 67 66 66 67
54 56 55 56 58 59 61 63 63 63 66 69 66 66 62 65 64 66 67 67 67 70 71 72 71 69 71 75 73 66 70 72 73 72 71 69 68 67 67 67 67 67 67
52 53 54 54 55 56 56 58 61 59 60 67 67 65 59 61 61 63 63 63 63 67 69 70 70 69 70 71 70 68 62 64 69 71 70 69 68 68 67 67 67 67 67
50 51 52 52 52 53 53 55 58 57 58 59 64 67 65 63 58 58 60 61 62 63 67 68 70 70 70 71 68 65 59 58 62 68 70 70 68 68 68 68 68 68 67
49 50 50 49 49 50 51 51 53 55 57 56 58 65 63 61 63 61 60 59 62 66 67 68 69 70 70 70 71 68 57 56 57 62 66 68 68 68 68 67 67 67 67
46 47 46 46 47 47 48 48 49 49 50 53 54 56 62 64 61 61 61 63 63 64 66 67 70 72 72 69 68 63 57 54 54 58 61 64 65 66 67 67 67 67 67
43 44 45 45 46 46 47 48 48 48 49 49 51 55 57 58 63 64 64 65 65 64 64 67 70 71 73 72 69 60 57 52 53 55 56 58 61 62 64 65 66 67 67
41 43 43 43 44 45 45 46 46 47 49 49 49 50 53 58 57 63 63 64 62 66 65 65 69 70 72 72 67 57 66 52 51 52 54 55 56 57 59 60 62 63 64
42 41 41 41 41 42 43 43 44 45 46 48 49 50 50 54 60 59 64 65 64 61 63 69 68 72 72 72 68 67 65 57 51 50 51 52 53 55 55 57 58 59 60
39 38 38 39 40 41 42 42 42 44 44 46 48 48 50 51 55 60 62 65 64 64 64 73 72 74 72 70 67 68 67 57 50 49 49 49 50 52 53 54 55 56 57
37 37 37 37 38 39 40 40 40 41 43 45 47 47 49 51 51 57 59 64 63 64 60 69 74 72 70 70 69 68 68 65 62 49 48 48 48 49 50 51 53 53 55
36 36 36 37 37 37 39 38 38 40 40 40 43 45 48 51 51 53 60 61 63 63 62 60 69 68 67 70 70 67 66 64 63 52 48 48 47 47 48 49 50 50 51
35 36 37 37 36 36 36 37 38 38 39 40 41 43 46 49 49 52 54 60 61 65 63 60 61 70 67 68 66 66 63 62 61 54 47 46 46 47 47 48 48 49 49
34 34 34 35 35 34 34 34 36 37 38 40 42 42 45 46 48 52 53 56 62 62 63 60 60 60 63 63 64 59 57 59 56 51 48 48 47 46 46 46 46 47 47
33 32 32 32 34 34 33 32 33 34 35 36 38 40 41 40 41 45 51 54 57 60 62 62 58 59 58 57 56 57 59 56 50 49 47 47 47 46 45 45 45 45 45
29 29 28 29 30 33 32 32 32 31 31 32 33 34 36 36 38 36 37 36 37 48 56 61 58 58 61 62 59 59 56 50 49 47 47 43 44 41 41 43 41 41 42
29 28 27 28 28 30 32 31 31 30 28 28 29 30 32 34 35 36 35 35 35 35 34 46 43 47 53 51 60 60 57 54 55 48 48 37 37 35 37 39 39 40 41
28 27 27 27 27 28 31 30 29 28 27 27 28 28 29 30 31 32 33 33 32 32 33 33 33 32 33 36 39 45 59 48 37 37 44 36 33 34 33 35 38 39 39
27 27 27 26 26 26 30 30 27 26 26 25 27 28 28 28 31 31 29 29 30 29 33 34 33 34 35 35 36 43 39 44 34 34 35 36 32 32 32 32 33 37 37
25 26 26 26 27 25 29 30 27 24 23 24 25 25 28 28 29 29 26 26 25 27 29 30 31 31 32 33 33 32 34 36 34 35 33 34 33 33 32 32 32 33 34
MSLP
1012.78 1013.11 1013.08 1013.30 1013.35 1013.68 1013.70 1013.92 1014.35 1014.68 1014.77 1015.01 1014.85 1014.86 1014.86 1014.96 1015.14 1015.39 1015.53 1015.72 1015.93 1016.03 1016.02 1016.08 1016.12 1016.44 1016.64 1016.98 1017.17 1017.41 1017.67 1018.02 1018.40 1018.58 1018.98 1019.39 1019.81 1020.12 1020.29 1020.79 1021.13 1021.51 1022.07
1012.33 1012.60 1012.94 1013.17 1013.46 1013.04 1013.38 1013.55 1013.72 1014.33 1014.50 1014.42 1014.41 1014.48 1014.45 1014.33 1014.45 1014.67 1015.00 1015.17 1015.45 1015.62 1015.71 1015.72 1015.73 1015.89 1016.15 1016.43 1016.61 1016.91 1017.19 1017.44 1017.81 1018.20 1018.54 1018.88 1019.19 1019.65 1020.06 1020.33 1020.97 1021.21 1021.68
1012.00 1012.11 1012.36 1012.49 1012.44 1013.05 1012.76 1013.39 1013.30 1013.69 1014.08 1014.25 1014.12 1013.91 1013.87 1013.96 1013.80 1013.87 1014.29 1014.58 1014.78 1015.20 1015.29 1015.32 1015.39 1015.55 1015.79 1015.96 1016.19 1016.37 1016.62 1016.99 1017.25 1017.59 1018.17 1018.41 1018.72 1019.13 1019.44 1019.96 1020.54 1020.97 1021.27
1012.95 1012.32 1012.13 1011.90 1012.06 1011.91 1012.13 1012.77 1013.85 1013.83 1013.46 1013.81 1013.59 1013.54 1013.43 1013.47 1013.42 1013.36 1013.44 1013.85 1014.12 1014.33 1014.59 1014.94 1015.12 1015.38 1015.49 1015.60 1015.63 1015.91 1016.09 1016.46 1016.79 1017.02 1017.30 1017.89 1018.20 1018.53 1019.03 1019.40 1019.96 1020.46 1020.94
1013.94 1013.29 1012.77 1012.02 1011.98 1012.08 1012.17 1011.73 1013.24 1013.41 1013.42 1013.20 1013.20 1012.77 1012.92 1013.12 1013.09 1012.79 1012.76 1013.04 1013.40 1013.61 1013.79 1014.25 1014.68 1014.97 1015.08 1015.24 1015.26 1015.34 1015.56 1015.85 1016.24 1016.57 1016.83 1017.08 1017.55 1017.92 1018.21 1018.80 1019.44 1020.00 1020.47
1014.66 1014.18 1013.57 1013.09 1012.26 1011.85 1011.70 1011.83 1012.13 1012.48 1011.89 1011.75 1012.03 1011.76 1011.91 1012.31 1012.41 1012.49 1012.26 1012.41 1012.56 1012.87 1013.08 1013.44 1013.78 1014.17 1014.59 1014.71 1014.85 1014.85 1015.09 1015.22 1015.48 1015.87 1016.40 1016.59 1016.86 1017.32 1017.77 1018.25 1018.81 1019.45 1019.82
1015.27 1014.38 1013.63 1013.25 1012.95 1012.51 1012.05 1011.95 1011.84 1011.40 1011.61 1011.63 1011.86 1011.64 1011.28 1011.40 1011.97 1011.42 1012.29 1012.01 1012.43 1012.32 1012.70 1013.06 1013.23 1013.34 1013.44 1014.04 1014.20 1014.37 1014.49 1014.66 1014.89 1015.23 1015.61 1015.99 1016.32 1016.54 1017.08 1017.63 1018.14 1018.70 1019.11
1015.85 1015.19 1014.74 1014.14 1013.84 1013.43 1012.91 1012.40 1011.85 1011.50 1011.20 1011.20 1010.91 1010.89 1010.31 1010.92 1011.31 1010.63 1011.76 1011.72 1012.26 1012.10 1012.48 1012.63 1012.77 1012.90 1012.91 1012.84 1013.35 1013.79 1013.95 1014.10 1014.33 1014.53 1014.89 1015.30 1015.70 1016.00 1016.53 1016.99 1017.36 1017.81 1018.39
1016.37 1015.89 1015.35 1014.80 1014.11 1013.96 1013.50 1013.03 1012.58 1011.89 1011.10 1010.30 1010.05 1009.97 1009.85 1009.53 1010.44 1010.49 1011.30 1010.94 1011.73 1012.63 1012.63 1012.28 1012.03 1012.10 1012.11 1012.24 1012.53 1012.96 1013.25 1013.47 1013.68 1013.84 1014.10 1014.52 1014.94 1015.53 1015.95 1016.19 1016.67 1016.96 1017.40
1016.67 1016.21 1015.65 1015.11 1014.70 1014.24 1013.77 1013.19 1012.78 1012.41 1011.44 1010.28 1009.67 1009.25 1009.19 1009.52 1009.83 1010.10 1010.55 1010.05 1011.55 1011.96 1011.61 1011.03 1011.02 1011.08 1011.44 1011.39 1011.62 1011.77 1012.22 1012.74 1013.17 1013.35 1013.55 1013.78 1014.27 1014.62 1015.15 1015.50 1015.74 1016.18 1016.49
1016.79 1016.38 1016.00 1015.49 1014.89 1014.48 1013.73 1013.70 1013.19 1012.61 1012.09 1011.26 1010.17 1008.92 1008.84 1009.12 1009.20 1009.46 1009.37 1009.67 1010.24 1010.19 1009.86 1009.40 1009.26 1009.94 1010.57 1010.81 1010.68 1010.81 1011.41 1011.98 1012.42 1012.73 1012.99 1013.29 1013.52 1013.83 1014.17 1014.69 1014.86 1015.26 1015.66
1016.67 1016.34 1016.10 1015.54 1014.95 1014.58 1013.75 1013.29 1013.14 1012.69 1012.02 1011.29 1010.59 1009.69 1008.34 1007.74 1007.57 1008.34 1008.35 1008.10 1008.13 1008.63 1008.48 1008.14 1007.99 1008.42 1009.10 1009.63 1009.90 1009.67 1010.08 1010.81 1011.43 1011.94 1012.31 1012.62 1012.84 1013.13 1013.37 1013.75 1014.26 1014.37 1014.74
1016.48 1016.13 1015.59 1014.84 1014.63 1014.27 1013.81 1013.23 1012.93 1012.49 1011.73 1011.27 1010.51 1009.81 1008.93 1008.06 1007.39 1007.16 1007.20 1006.97 1007.11 1007.24 1007.22 1006.99 1007.16 1007.52 1007.93 1008.50 1008.92 1009.20 1009.30 1009.64 1010.21 1010.75 1011.37 1011.89 1012.25 1012.44 1012.72 1012.93 1013.18 1013.31 1013.57
1016.71 1015.96 1015.12 1014.86 1014.45 1013.93 1013.51 1013.00 1012.70 1012.15 1011.42 1010.82 1010.18 1009.63 1009.01 1008.01 1007.56 1006.76 1006.22 1006.35 1006.26 1006.07 1006.18 1005.71 1006.14 1006.66 1007.16 1007.52 1007.70 1008.28 1008.49 1008.91 1009.14 1009.47 1010.18 1010.83 1011.33 1011.68 1011.77 1012.03 1012.33 1012.44 1012.19
1016.62 1015.77 1015.30 1014.86 1014.09 1013.40 1013.04 1012.62 1012.17 1011.65 1010.93 1010.13 1009.41 1008.99 1008.51 1007.88 1006.92 1006.65 1005.67 1005.48 1005.38 1004.83 1004.39 1004.45 1004.94 1005.42 1005.93 1006.41 1006.46 1007.29 1007.54 1007.76 1008.22 1008.61 1009.14 1009.80 1010.36 1010.75 1011.10 1011.24 1011.40 1010.95 1010.33
1016.83 1016.05 1015.47 1014.76 1013.95 1013.41 1012.92 1012.50 1011.72 1010.87 1010.24 1009.66 1008.90 1008.36 1007.83 1007.50 1006.75 1006.04 1005.35 1004.80 1004.69 1004.15 1003.28 1003.06 1003.37 1003.80 1004.61 1005.13 1005.26 1005.83 1006.36 1006.67 1007.30 1007.73 1008.24 1008.74 1009.32 1009.80 1010.09 1010.46 1010.82 1010.39 1009.83
1016.91 1016.37 1015.72 1014.89 1014.16 1013.34 1012.72 1012.02 1011.24 1010.51 1009.61 1008.99 1008.38 1007.78 1006.98 1006.78 1006.25 1005.39 1004.76 1004.10 1003.65 1003.74 1003.04 1002.93 1002.66 1003.19 1003.68 1003.90 1004.60 1005.01 1005.28 1005.72 1006.23 1006.80 1007.41 1007.84 1008.45 1008.86 1009.18 1009.57 1010.25 1010.41 1010.16
1017.32 1016.58 1016.07 1015.54 1014.73 1013.77 1012.77 1011.95 1011.04 1010.23 1009.44 1008.66 1007.90 1007.03 1006.13 1005.86 1005.44 1004.98 1004.18 1003.42 1003.03 1002.90 1002.69 1002.56 1002.50 1002.83 1003.00 1003.10 1003.23 1003.85 1004.32 1004.73 1005.31 1005.70 1006.52 1006.86 1007.55 1007.88 1008.42 1008.98 1009.52 1010.03 1009.94
1017.88 1017.28 1016.68 1015.74 1014.81 1013.89 1012.94 1011.75 1010.60 1009.59 1008.60 1007.75 1007.08 1006.45 1005.79 1005.18 1004.63 1004.20 1003.77 1003.02 1002.68 1002.11 1002.05 1002.31 1001.87 1001.99 1002.38 1002.53 1002.91 1003.33 1003.78 1004.29 1004.57 1004.92 1005.80 1006.25 1006.61 1007.24 1007.85 1008.34 1008.90 1009.51 1009.77
1018.68 1018.12 1017.34 1016.32 1015.22 1014.35 1013.33 1012.14 1010.74 1009.46 1008.18 1007.03 1005.72 1005.44 1005.27 1004.77 1004.12 1003.45 1003.16 1002.81 1002.31 1001.70 1001.47 1001.48 1001.56 1001.76 1001.81 1002.26 1002.57 1002.79 1003.43 1003.69 1004.15 1004.76 1005.25 1005.53 1006.03 1006.67 1007.40 1007.83 1008.31 1008.95 1009.18
1019.27 1018.67 1017.88 1017.14 1015.97 1014.85 1013.91 1012.62 1011.36 1010.09 1008.67 1007.34 1005.84 1005.41 1005.09 1004.86 1004.10 1003.21 1002.86 1002.42 1002.12 1001.50 1001.19 1000.91 1001.62 1001.12 1001.52 1001.60 1001.89 1002.24 1002.77 1003.53 1004.10 1004.58 1005.19 1005.69 1005.97 1006.37 1007.18 1007.52 1007.91 1008.25 1008.61
1020.19 1019.72 1018.84 1018.03 1016.80 1015.53 1014.51 1013.33 1012.25 1011.22 1010.03 1008.59 1007.52 1006.67 1005.91 1005.29 1004.63 1004.01 1003.30 1003.24 1002.83 1002.36 1001.73 1001.13 1001.01 1001.29 1000.97 1000.58 1001.45 1001.58 1002.34 1003.35 1004.20 1004.31 1004.80 1005.55 1005.72 1006.39 1007.02 1007.46 1007.74 1007.86 1008.12
1021.04 1020.38 1019.72 1018.91 1017.63 1016.33 1015.29 1014.32 1013.26 1012.35 1011.47 1010.27 1009.14 1007.84 1006.65 1005.99 1005.14 1004.65 1004.51 1004.23 1003.70 1003.43 1002.77 1001.95 1002.23 1002.80 1001.19 1001.21 1000.85 1001.15 1001.46 1002.18 1002.58 1003.26 1004.21 1005.61 1006.09 1006.58 1007.29 1007.55 1007.74 1007.63 1007.72
1021.78 1021.18 1020.57 1019.69 1018.62 1017.11 1016.25 1015.27 1014.13 1013.33 1012.52 1011.41 1010.35 1009.21 1008.11 1007.18 1006.58 1005.94 1005.57 1005.16 1004.89 1004.52 1004.15 1003.56 1004.44 1004.64 1003.02 1003.52 1002.64 1001.93 1001.01 1001.55 1002.91 1003.42 1003.43 1005.19 1006.18 1006.65 1007.06 1007.49 1007.52 1007.48 1007.60
1022.44 1021.82 1021.28 1020.47 1019.38 1018.58 1017.62 1016.52 1015.29 1014.48 1013.49 1012.63 1011.99 1010.78 1009.83 1008.91 1008.41 1008.00 1007.42 1006.91 1006.43 1005.43 1005.92 1005.15 1004.87 1005.18 1004.35 1003.65 1003.07 1002.14 1002.43 1002.15 1003.26 1003.80 1004.03 1004.26 1005.57 1006.47 1006.84 1007.66 1007.69 1007.39 1007.29
1023.25 1022.62 1021.83 1021.37 1020.70 1019.92 1018.87 1017.82 1016.87 1015.81 1014.76 1014.09 1013.37 1012.59 1012.07 1011.20 1010.39 1009.91 1009.37 1008.57 1006.61 1007.95 1007.26 1007.42 1006.76 1005.49 1005.31 1005.14 1004.54 1004.80 1004.23 1003.81 1004.04 1004.14 1004.53 1004.61 1005.44 1005.77 1007.09 1007.34 1007.82 1007.34 1007.89
Wind_Speed
7 5 5 5 6 6 8 9 8 8 9 11 10 11 10 10 9 5 5 6 9 10 13 16 18 15 14 14 15 14 15 17 18 21 19 17 17 18 20 18 19 19 17
6 6 5 5 4 6 6 9 9 9 10 10 12 12 12 10 10 9 6 7 9 10 11 16 17 14 15 15 15 16 16 17 19 20 19 19 18 18 18 19 19 19 19
6 7 6 6 7 6 7 7 7 6 9 10 14 12 10 12 11 11 8 7 7 10 10 12 11 10 10 13 16 16 16 17 18 20 19 19 18 17 19 20 20 20 21
8 4 3 5 4 5 5 4 5 6 6 7 9 9 10 8 12 12 10 8 8 7 8 11 10 10 10 13 17 17 17 18 19 19 19 19 20 20 17 21 22 21 20
11 8 7 9 9 5 4 7 6 8 8 9 9 7 7 9 11 9 13 11 11 10 7 7 11 11 11 13 16 18 19 20 20 20 21 20 20 19 22 20 20 21 21
10 8 6 7 7 3 6 8 13 13 13 10 8 8 8 8 9 8 11 8 10 11 11 10 8 9 13 12 13 16 19 20 21 21 20 20 19 19 19 20 21 23 23
13 11 8 9 9 6 5 7 9 10 8 6 6 8 6 8 12 7 7 8 9 9 9 9 6 6 7 13 14 16 19 21 21 21 21 21 19 18 18 20 23 25 24
13 10 10 8 8 7 8 7 7 9 11 12 11 9 8 7 7 7 6 5 4 3 8 10 10 9 9 8 11 16 18 20 20 21 21 19 18 17 19 21 24 27 27
11 12 12 9 8 7 7 9 9 9 8 9 14 8 4 10 4 3 7 5 4 5 7 9 11 11 11 10 10 12 15 15 18 21 21 18 18 19 20 22 24 27 29
12 11 11 10 10 7 9 8 8 10 9 9 7 10 13 2 1 4 3 3 6 10 14 9 10 11 13 11 13 13 13 16 16 18 19 20 19 21 19 20 23 27 29
10 11 10 11 11 9 9 11 11 10 9 9 9 9 10 10 8 9 9 5 8 13 14 13 12 10 13 13 12 13 17 15 17 16 15 16 17 17 18 19 22 26 27
9 10 11 11 10 9 10 10 12 12 11 11 9 9 8 8 10 12 12 12 14 11 14 14 15 12 12 11 14 15 18 19 18 17 17 18 18 18 19 20 22 26 31
10 11 13 12 10 11 12 11 12 13 12 11 12 11 9 8 8 10 13 12 12 12 8 11 13 12 12 12 12 17 17 18 20 20 20 19 18 18 19 20 23 25 31
11 14 14 14 14 13 11 11 9 11 12 12 16 12 11 11 8 11 11 12 11 13 12 11 10 12 13 12 13 16 14 19 19 21 21 19 17 19 18 18 19 25 32
11 13 14 14 14 14 13 12 9 12 12 12 12 12 11 11 11 10 12 12 13 13 13 14 12 14 13 13 14 14 14 17 20 19 20 19 18 21 19 16 14 14 22
13 13 14 14 14 13 13 13 11 11 13 11 10 13 13 11 13 12 11 12 13 14 15 11 12 13 13 11 13 16 15 14 17 19 20 20 19 21 17 14 12 7 10
14 14 14 15 14 14 14 13 14 14 14 13 14 15 15 15 12 13 12 14 13 14 15 13 9 10 15 15 13 14 13 11 10 18 19 19 18 17 15 15 15 12 13
14 15 14 13 14 14 14 15 15 15 16 16 15 16 15 11 17 15 13 16 15 14 14 16 14 10 13 14 14 14 11 9 10 13 19 19 18 17 16 15 16 16 16
14 15 15 15 16 14 15 14 14 16 16 16 16 17 15 16 16 12 14 15 12 13 14 12 12 11 10 9 12 11 11 10 8 9 15 17 17 16 16 16 16 17 17
15 16 16 16 16 14 16 16 14 14 14 13 16 15 15 15 14 13 13 14 16 14 14 13 12 10 9 7 8 8 6 6 5 2 3 7 12 13 14 13 12 14 15
16 17 17 17 17 14 13 17 16 15 15 14 15 9 7 11 12 13 12 13 14 15 14 14 12 10 9 4 10 5 8 5 1 3 3 3 4 5 5 8 8 11 11
16 15 16 17 18 14 30 28 22 15 17 17 15 13 12 16 9 17 17 16 8 6 15 15 11 18 15 11 9 10 9 4 5 4 4 4 3 4 4 4 7 8 9
14 15 15 15 16 20 34 30 26 14 14 16 18 16 15 14 15 9 13 14 19 19 14 6 4 8 7 5 7 13 13 11 8 5 5 4 1 3 3 4 4 4 6
13 13 14 16 16 19 34 31 26 15 13 16 19 20 19 21 23 18 10 12 13 14 15 11 10 7 7 7 5 5 10 5 5 3 3 5 2 3 3 3 5 3 0
12 12 12 16 18 18 34 33 22 13 14 18 17 23 22 23 35 30 16 15 14 18 15 23 19 19 20 23 19 4 5 5 1 1 2 2 4 4 3 1 0 8 9
11 10 13 15 23 18 32 33 24 12 16 14 17 20 35 29 36 33 18 15 19 16 15 13 14 17 18 18 24 14 7 4 3 2 3 2 2 3 4 1 2 3 2
Wind_Direction
208 209 217 216 208 214 227 220 223 216 212 226 231 235 240 235 240 242 257 214 230 233 238 240 236 226 216 210 209 207 206 203 206 204 192 193 196 197 186 178 175 173 173
210 216 204 210 229 204 217 232 214 223 226 224 234 233 238 239 239 232 235 253 224 237 234 238 237 221 217 217 207 205 206 204 205 207 197 199 203 195 188 179 179 174 173
230 220 203 209 215 231 218 245 259 227 234 233 235 234 233 241 240 237 230 235 247 223 233 235 237 232 231 227 215 206 203 204 206 208 205 199 202 209 200 181 184 181 179
7 291 227 220 206 173 162 194 243 234 229 228 237 239 244 231 242 245 238 226 231 242 219 223 229 239 240 244 225 213 205 203 206 208 203 206 207 212 201 197 185 189 187
360 339 307 276 273 243 186 144 259 285 241 220 228 219 233 243 244 240 241 235 232 235 229 213 222 236 240 242 240 220 213 209 208 210 209 208 210 209 213 201 186 193 190
358 347 332 337 335 305 224 213 222 216 250 228 222 220 217 234 233 227 234 228 228 227 229 223 217 227 232 237 239 231 224 220 214 214 214 211 207 210 215 198 193 202 194
353 348 349 343 339 323 292 256 249 245 239 234 252 245 229 220 238 212 234 222 234 230 244 239 219 222 224 225 235 238 228 226 219 218 215 215 218 206 194 192 199 205 196
348 345 343 336 337 320 302 275 261 248 249 238 237 240 247 213 230 189 219 205 239 265 260 255 246 235 234 230 236 222 232 228 222 219 216 213 212 200 199 202 205 202 199
342 341 336 330 331 323 305 303 287 268 256 240 223 231 198 233 162 164 172 150 121 254 262 251 245 239 229 233 223 226 222 221 224 219 221 212 205 210 211 209 212 209 201
340 335 329 330 327 321 306 305 302 297 291 271 233 222 240 170 228 190 208 139 202 251 247 227 245 249 242 232 222 223 202 215 221 222 219 220 209 210 213 218 218 214 210
329 328 330 328 322 314 311 305 297 288 284 276 281 239 219 229 220 227 236 198 215 232 237 244 237 235 240 238 229 219 205 205 214 218 218 215 214 213 215 218 215 217 212
322 323 323 318 312 302 303 304 296 288 283 276 282 292 260 220 210 224 229 231 222 225 226 232 235 232 226 227 231 222 195 197 201 213 216 221 224 224 222 223 224 216 211
326 320 321 322 313 306 300 290 287 282 277 270 268 268 270 283 240 230 228 232 226 224 219 230 237 235 233 225 224 221 215 204 199 203 212 220 223 225 225 227 231 232 230
319 321 325 319 311 306 296 292 280 276 271 266 264 258 266 264 266 242 222 222 228 234 223 219 209 226 227 226 218 209 223 210 208 203 206 210 212 223 222 222 231 240 238
324 326 322 317 313 310 302 292 280 274 271 269 258 257 258 264 263 269 234 221 222 228 229 222 223 211 214 219 214 211 214 214 207 203 205 205 209 219 225 221 240 241 250
336 333 326 322 319 312 304 295 284 276 270 264 262 252 251 253 256 245 257 226 231 232 250 227 220 221 207 212 206 209 217 212 199 201 204 205 204 214 218 212 223 201 168
348 343 337 332 323 321 315 306 297 287 277 274 262 258 249 246 248 255 242 239 226 230 237 244 249 219 220 214 213 212 218 211 214 199 201 206 204 206 205 197 207 194 174
355 353 346 337 335 325 325 317 304 295 284 276 272 270 256 247 247 242 248 247 233 230 233 236 241 222 224 212 211 209 211 207 214 194 199 200 202 201 197 192 195 199 186
3 1 355 352 348 343 335 327 315 300 286 275 263 257 261 252 247 244 244 237 254 237 232 241 238 235 223 212 211 210 208 204 209 195 193 197 198 197 196 197 199 201 201
10 5 1 356 354 350 353 347 340 335 330 305 278 248 256 257 269 246 235 249 242 253 235 238 227 227 216 206 210 200 198 198 190 148 153 188 185 190 199 200 197 210 211
12 9 4 2 2 7 4 4 0 355 357 354 19 10 348 348 353 271 255 251 250 246 249 234 246 214 207 173 197 180 210 194 165 157 135 154 146 141 150 157 163 184 199
14 8 6 4 4 12 13 13 13 7 8 17 16 20 21 14 6 33 54 51 44 277 257 243 235 234 221 202 192 196 188 172 212 194 155 176 158 144 138 159 161 172 192
14 16 11 6 8 18 16 13 11 15 12 20 23 21 26 23 21 27 41 41 45 35 39 314 352 303 283 9 233 205 196 195 217 159 169 173 123 120 116 120 155 170 195
20 19 16 13 13 17 18 16 12 12 16 22 24 26 29 30 27 24 23 40 39 39 32 46 52 51 31 356 319 315 236 175 64 354 157 163 143 150 145 104 79 85 89
21 24 21 17 20 18 21 19 14 13 18 24 23 28 30 34 33 29 31 33 34 37 13 36 47 35 32 27 21 332 2 176 134 217 16 116 161 125 131 161 38 85 82
24 22 28 24 21 21 18 23 23 15 20 23 24 28 31 37 38 37 34 29 37 24 22 27 31 34 23 23 29 24 358 14 345 162 7 120 145 130 160 182 210 88 344